Weather History for KERY - May, 2014

Change the Weather History Date:

Wednesday, May 14, 2014

  Actual Average Record
Temperature  
Mean Temperature 47 °F -  
Max Temperature 57 °F 61 °F - (-1)
Min Temperature 37 °F 38 °F - (-1)
Degree Days  
Heating Degree Days 18    
Moisture  
Dew Point 35 °F    
Average Humidity 70    
Maximum Humidity 98    
Minimum Humidity 42    
Precipitation  
Precipitation 0.00 in - - ()
Sea Level Pressure  
Sea Level Pressure 30.13 in    
Wind  
Wind Speed 7 mph (WNW)    
Max Wind Speed 15 mph    
Max Gust Speed 25 mph    
Visibility 10 miles    
Events      
Averages and records for this station are not official NWS values.
T = Trace of Precipitation, MM = Missing Value Source: NWS Daily Summary

Daily Weather History Graph

Daily Weather History Graph

Search for Another Location

Airport or City:

Trip Planner

Search our weather history database for the weather conditions in past years. The results will help you decide how hot, cold, wet, or windy it might be!

Date:

Astronomy

May. 14, 2014 Rise Set
Actual Time 6:09 AM EDT 9:07 PM EDT
Civil Twilight 5:34 AM EDT 9:42 PM EDT
Nautical Twilight 4:49 AM EDT 10:27 PM EDT
Astronomical Twilight 3:55 AM EDT 11:22 PM EDT
Moon 9:10 PM EDT (5/14) 6:11 AM EDT (5/14)
Length of Visible Light 16h 07m
Length of Day
14h 57m
Full, 100% of the Moon is Illuminated
May 14
Full
May 14
Full
May 21
Last Quarter
May 28
New
Jun 5
First Quarter

Hourly Weather History & Observations

Time (EDT) Temp. Windchill Dew Point Humidity Pressure Visibility Wind Dir Wind Speed Gust Speed Precip Events Conditions
12:15 AM 42.8 °F 41.1 °F 39.4 °F 88% 30.04 in 10.0 mi South 3.5 mph - N/A   Overcast
12:34 AM 42.8 °F - 39.2 °F 87% 30.04 in 10.0 mi Calm Calm - N/A   Overcast
12:55 AM 42.4 °F - 39.9 °F 91% 30.05 in 10.0 mi Calm Calm - N/A   Overcast
1:15 AM 43.0 °F 41.3 °F 39.4 °F 87% 30.04 in 10.0 mi SW 3.5 mph - N/A   Overcast
1:35 AM 43.0 °F 40.3 °F 37.9 °F 82% 30.05 in 10.0 mi WSW 4.6 mph - N/A   Overcast
1:55 AM 42.4 °F 38.8 °F 37.0 °F 81% 30.05 in 10.0 mi West 5.8 mph - N/A   Scattered Clouds
2:15 AM 41.4 °F 36.8 °F 36.5 °F 83% 30.04 in 10.0 mi West 6.9 mph - N/A   Clear
2:35 AM 41.5 °F 38.6 °F 35.8 °F 80% 30.05 in 10.0 mi WSW 4.6 mph - N/A   Clear
2:54 AM 41.0 °F 39.0 °F 36.0 °F 82% 30.05 in 10.0 mi WSW 3.5 mph - N/A   Clear
3:15 AM 40.5 °F 37.3 °F 36.5 °F 86% 30.05 in 10.0 mi WSW 4.6 mph - N/A   Clear
3:35 AM 40.1 °F - 36.5 °F 87% 30.05 in 10.0 mi Calm Calm - N/A   Clear
3:55 AM 40.5 °F 35.8 °F 36.5 °F 86% 30.06 in 10.0 mi WSW 6.9 mph - N/A   Mostly Cloudy
4:15 AM 41.0 °F 33.5 °F 36.7 °F 85% 30.07 in 10.0 mi WSW 13.8 mph 18.4 mph N/A   Overcast
4:35 AM 41.0 °F 34.7 °F 36.9 °F 85% 30.07 in 10.0 mi West 10.4 mph 18.4 mph N/A   Overcast
4:55 AM 39.7 °F 34.3 °F 37.4 °F 91% 30.07 in 10.0 mi WSW 8.1 mph - N/A   Mostly Cloudy
5:14 AM 37.9 °F 31.5 °F 36.5 °F 95% 30.08 in 10.0 mi WSW 9.2 mph - N/A   Scattered Clouds
5:35 AM 38.3 °F 31.9 °F 37.0 °F 95% 30.08 in 10.0 mi WSW 9.2 mph - N/A   Clear
5:55 AM 38.7 °F 32.9 °F 37.6 °F 96% 30.08 in 10.0 mi WSW 8.1 mph - N/A   Clear
6:14 AM 38.8 °F 33.2 °F 37.9 °F 97% 30.09 in 10.0 mi WSW 8.1 mph - N/A   Clear
6:35 AM 38.5 °F 33.4 °F 37.8 °F 97% 30.10 in 10.0 mi SW 6.9 mph - N/A   Scattered Clouds
6:55 AM 39.4 °F 33.8 °F 38.8 °F 98% 30.11 in 10.0 mi WSW 8.1 mph - N/A   Mostly Cloudy
7:15 AM 41.0 °F 35.2 °F 39.7 °F 95% 30.12 in 10.0 mi WSW 9.2 mph - N/A   Overcast
7:35 AM 42.8 °F 36.2 °F 40.1 °F 90% 30.12 in 10.0 mi West 12.7 mph 17.3 mph N/A   Overcast
7:55 AM 43.2 °F 37.9 °F 39.9 °F 88% 30.13 in 10.0 mi West 9.2 mph 17.3 mph N/A   Overcast
8:15 AM 44.1 °F 39.0 °F 39.7 °F 85% 30.14 in 10.0 mi West 9.2 mph 16.1 mph N/A   Overcast
8:35 AM 44.8 °F 39.4 °F 39.0 °F 80% 30.14 in 10.0 mi West 10.4 mph - N/A   Overcast
8:54 AM 45.3 °F 41.1 °F 38.1 °F 76% 30.14 in 10.0 mi West 8.1 mph 17.3 mph N/A   Overcast
9:15 AM 46.4 °F 41.9 °F 37.4 °F 71% 30.15 in 10.0 mi West 9.2 mph 19.6 mph N/A   Overcast
9:34 AM 46.4 °F 42.9 °F 36.1 °F 67% 30.15 in 10.0 mi West 6.9 mph - N/A   Overcast
9:55 AM 47.5 °F - 37.4 °F 68% 30.15 in 10.0 mi WNW 6.9 mph - N/A   Mostly Cloudy
11:15 AM 52.5 °F - 38.1 °F 58% 30.15 in 10.0 mi WSW 6.9 mph - N/A   Clear
11:35 AM 52.3 °F - 36.9 °F 56% 30.15 in 10.0 mi WNW 10.4 mph - N/A   Scattered Clouds
11:55 AM 54.0 °F - 38.1 °F 55% 30.16 in 10.0 mi SW 10.4 mph - N/A   Mostly Cloudy
12:15 PM 55.9 °F - 38.3 °F 52% 30.16 in 10.0 mi WNW 9.2 mph - N/A   Overcast
12:35 PM 55.4 °F - 37.0 °F 50% 30.15 in 10.0 mi WSW 9.2 mph - N/A   Mostly Cloudy
12:55 PM 55.0 °F - 35.6 °F 48% 30.14 in 10.0 mi WNW 9.2 mph - N/A   Mostly Cloudy
1:15 PM 54.5 °F - 34.7 °F 47% 30.14 in 10.0 mi WNW 8.1 mph - N/A   Mostly Cloudy
1:35 PM 54.5 °F - 35.2 °F 48% 30.14 in 10.0 mi NNW 5.8 mph - N/A   Mostly Cloudy
1:54 PM 55.6 °F - 33.1 °F 43% 30.15 in 10.0 mi West 4.6 mph - N/A   Scattered Clouds
2:15 PM 57.2 °F - 34.3 °F 42% 30.14 in 10.0 mi West 4.6 mph - N/A   Scattered Clouds
2:35 PM 54.1 °F - 36.7 °F 52% 30.15 in 10.0 mi NNW 8.1 mph 21.9 mph N/A   Mostly Cloudy
2:54 PM 54.0 °F - 37.4 °F 54% 30.15 in 10.0 mi North 12.7 mph 18.4 mph N/A   Mostly Cloudy
3:15 PM 54.3 °F - 36.3 °F 51% 30.16 in 10.0 mi North 8.1 mph 18.4 mph N/A   Mostly Cloudy
3:35 PM 52.9 °F - 34.7 °F 50% 30.16 in 10.0 mi North 9.2 mph - N/A   Overcast
3:55 PM 51.8 °F - 34.3 °F 51% 30.15 in 10.0 mi North 9.2 mph 20.7 mph N/A   Overcast
4:15 PM 50.5 °F - 34.0 °F 53% 30.15 in 10.0 mi North 10.4 mph 21.9 mph N/A   Overcast
4:35 PM 50.0 °F - 32.5 °F 51% 30.16 in 10.0 mi North 15.0 mph 25.3 mph N/A   Overcast
4:55 PM 49.8 °F - 32.0 °F 50% 30.16 in 10.0 mi North 11.5 mph 18.4 mph N/A   Overcast
5:14 PM 49.5 °F - 30.7 °F 49% 30.16 in 10.0 mi North 11.5 mph 24.2 mph N/A   Overcast
5:35 PM 49.1 °F - 30.7 °F 49% 30.16 in 10.0 mi North 11.5 mph 21.9 mph N/A   Overcast
5:55 PM 48.4 °F - 30.0 °F 49% 30.17 in 10.0 mi NNW 6.9 mph 21.9 mph N/A   Overcast
6:14 PM 48.2 °F - 30.4 °F 50% 30.17 in 10.0 mi North 11.5 mph - N/A   Overcast
6:35 PM 47.8 °F - 31.6 °F 53% 30.17 in 10.0 mi North 9.2 mph - N/A   Overcast
6:55 PM 47.3 °F - 30.7 °F 53% 30.17 in 10.0 mi North 10.4 mph - N/A   Overcast
7:15 PM 46.8 °F - 31.1 °F 55% 30.17 in 10.0 mi NNE 9.2 mph - N/A   Overcast
7:55 PM 44.8 °F 39.9 °F 32.2 °F 61% 30.17 in 10.0 mi NNW 9.2 mph - N/A   Scattered Clouds
8:15 PM 43.7 °F 39.7 °F 33.1 °F 66% 30.18 in 10.0 mi NNW 6.9 mph - N/A   Scattered Clouds
8:35 PM 42.4 °F 37.0 °F 31.5 °F 65% 30.18 in 10.0 mi North 9.2 mph 17.3 mph N/A   Scattered Clouds
8:54 PM 41.9 °F 36.3 °F 31.1 °F 66% 30.18 in 10.0 mi North 9.2 mph - N/A   Scattered Clouds
9:15 PM 41.0 °F 35.8 °F 30.9 °F 67% 30.19 in 10.0 mi North 8.1 mph - N/A   Scattered Clouds
9:35 PM 40.1 °F 34.7 °F 31.5 °F 71% 30.20 in 10.0 mi North 8.1 mph - N/A   Scattered Clouds
9:54 PM 39.6 °F 34.7 °F 31.5 °F 73% 30.19 in 10.0 mi North 6.9 mph - N/A   Scattered Clouds
10:15 PM 39.2 °F 33.6 °F 31.3 °F 73% 30.19 in 10.0 mi North 8.1 mph - N/A   Scattered Clouds
10:35 PM 38.8 °F 33.8 °F 30.9 °F 73% 30.19 in 10.0 mi North 6.9 mph - N/A   Scattered Clouds
10:55 PM 38.5 °F 34.1 °F 31.1 °F 75% 30.18 in 10.0 mi North 5.8 mph - N/A   Scattered Clouds
11:15 PM 38.5 °F 34.1 °F 31.1 °F 75% 30.18 in 10.0 mi North 5.8 mph - N/A   Clear
11:34 PM 38.3 °F 33.9 °F 30.9 °F 75% 30.17 in 10.0 mi NNW 5.8 mph - N/A   Scattered Clouds
11:55 PM 37.8 °F 33.3 °F 30.9 °F 76% 30.16 in 10.0 mi NNW 5.8 mph - N/A   Mostly Cloudy